sat.trackr.live / text

‹ back to catalog

STARLINK-2396

NORAD 47815 · 2021-018AE

PAYLOAD ACTIVE UNKNOWN

§ Identity

Operator
Country
US
Launch date
2021-03-11
Launch site
AFETR
Launch vehicle
Mass (kg)
RCS (m²)

Purposes: comms

External: N2YO · Heavens-Above · Gunter

§ Orbital elements

Epoch: 2026-05-24T16:48:17.559072Z

Period
94.01 min
Inclination
53.1592°
Eccentricity
0.0001127
Mean motion
15.31698751 rev/d
Perigee alt
470.0 km
Apogee alt
471.5 km
Semi-major
6,848.9 km
B*
1.4356e-4
RAAN
249.1660°
Arg perigee
84.7516°
Mean anomaly
275.3614°
Rev number
28,836

§ Raw data

STARLINK-23961 47815U 21018AE  26144.70020323  .00004092  00000+0  14356-3 0  99972 47815  53.1592 249.1660 0001127  84.7516 275.3614 15.31698751288363

JSON: /api/v1/satellites/47815 · /tle

For live sub-satellite position, see the globe view (requires WebGL).

§ Visibility from observer

Set your observer location to see the next 7 days of passes ≥ 10°. The values pass through the URL so the page stays shareable.

No JS? Fill the form by hand. The geolocation button needs JavaScript.